Regional Weather Roundup
Issued by NWS

Home | Current Version | Previous Version | Graphics & Text | Print | Product List | Glossary On
Versions: 1 2 3 4 5 6 7 8 9 10 11 12 13 14 15 16 17 18 19 20 21 22 23 24 25 26 27 28 29 30 31 32 33 34 35 36 37 38 39 40 41 42 43 44 45 46 47 48 49 50
000
ASUS43 KFSD 240110
RWRSD

WEATHER ROUNDUP FOR SOUTH DAKOTA
NATIONAL WEATHER SERVICE SIOUX FALLS SD
800 PM CDT WED JUL 23 2014

NOTE: "FAIR" INDICATES FEW OR NO CLOUDS BELOW 12,000 FEET WITH NO
SIGNIFICANT WEATHER AND/OR OBSTRUCTIONS TO VISIBILITY.


SDZ001>005-009-010-012>017-240200-
NORTHWEST AND NORTH CENTRAL SOUTH DAKOTA

CITY           SKY/WX    TMP DP  RH WIND       PRES   REMARKS
BUFFALO          N/A     83  62  49 SE17G28   29.96F
FAITH            N/A     80  58  46 E17G29    30.06F
MOBRIDGE       SUNNY     80  57  45 SE18      30.08F
$$

SDZ012>016-024>037-041>051-057-063-072>074-240200-
SOUTHWEST AND SOUTH CENTRAL SOUTH DAKOTA

CITY           SKY/WX    TMP DP  RH WIND       PRES   REMARKS
RAPID CTY ARPT SUNNY     82  66  58 SE10      30.07F
PIERRE         MOSUNNY   81  52  36 E17       30.08F
CUSTER         MOSUNNY   73  63  70 E15G21    30.24F
ELLSWORTH AFB  SUNNY     83  66  55 S13       30.07F
PHILIP         SUNNY     87  60  40 SE14G28   30.05F
PINE RIDGE     SUNNY     81  64  56 E13       30.08F
WINNER         FAIR      83  54  36 SE14      30.12F
$$

SDZ004>011-016>023-039-040-240200-
NORTHEAST SOUTH DAKOTA

CITY           SKY/WX    TMP DP  RH WIND       PRES   REMARKS
ABERDEEN       MOSUNNY   76  57  51 SE7       30.16F
WATERTOWN      CLEAR     75  54  47 VRB7      30.20S
SISSETON         N/A     75  61  61 SE5       30.17F
$$

SDZ017-020-022-023-036>040-048>070-240200-
SOUTHEAST SOUTH DAKOTA

CITY           SKY/WX    TMP DP  RH WIND       PRES   REMARKS
SIOUX FALLS    PTCLDY    75  56  51 NE10      30.17F
HURON          SUNNY     76  55  48 E10       30.15F
CHAMBERLAIN    SUNNY     79  56  43 SE10      30.13F
MITCHELL       CLEAR     78  60  53 E7        30.15F
YANKTON        CLEAR     75  61  60 E6        30.16S
$$

ABBREVIATIONS USED IN REMARKS
   TC - TEMPERATURE IN CELSIUS
  WCI - WIND CHILL INDEX
   HX - HEAT INDEX
  VSB - VISIBILITY



USA.gov is the U.S. government's official web portal to all federal, state and local government web resources and services.